Location: Krakow
(50.0830°N, 19.9170°E)
Time: 09:48:22
(UTC+01:00)

Transit 2A - Pass Details

Date: 14 February 2023
Orbit: 591 x 964 km, 66.7° (Epoch: 21 March)

Event Time Altitude Azimuth Distance (km) Brightness Sun altitude
Rises 16:13:41 0° 258° (WSW) 3,147 11.0 5.4°
Reaches altitude 10° 16:16:17 10° 271° (W) 2,291 9.8 5.0°
Maximum altitude 16:20:46 27° 329° (NNW) 1,514 7.7 4.4°
Drops below altitude 10° 16:25:39 10° 27° (NNE) 2,515 8.2 3.7°
Sets 16:28:40 0° 39° (NE) 3,515 8.9 3.3°
